Погода в Монтерее

США     36°36′22″N   121°48′23″W
темп.,
°C
ветер,
м/с
пор.,
м/с
влажн.,
%
обл.,
%
осадки,
мм/ч
давл.,
гПа
погр.,
м
21 октября, чт
чт2123:00+15ююв2289100 0.6 101969
02:00+15ююв1192100 0.0 101916
05:00+14ююз0194100 0.0 101911
08:00+15ююв119283 0.0 102037
11:00+20сз226897 0.0 1020847
14:00+21сз3264100 0.0 1018714
17:00+20зсз2367100 0.0 1018483
20:00+14ююв1194100 0.0 101918
22 октября, пт
пт2223:00+13ююв229166 0.0 101924
02:00+12ююз118998 0.0 101722
05:00+12ююв3483100 0.0 101567
08:00+13з2391100 1.4 1016151
11:00+13с0190100 3.8 1018149
14:00+16сз3359100 0.0 1016919
17:00+14зсз336588 0.0 1015533
20:00+9з1197100 0.0 101626
23 октября, сб
сб2323:00+9зюз119863 0.0 101618
02:00+9ююз119846 0.0 101524
05:00+8ююз119744 0.0 101550
08:00+9ююз11925 0.0 101514
11:00+15сз3355100 0.0 1015777
14:00+17сз3346100 0.0 1013802
17:00+15сз2251100 0.0 1012425
20:00+12ююв116692 0.0 101324
24 октября, вс
вс2423:00+13ю126395 0.0 101258
02:00+13зюз1273100 0.1 101080
05:00+13ю2491100 2.3 1008118
08:00+14ю31291100 6.9 1007831
11:00+15ю61689100 10.8 10061095
14:00+15ююз71888100 2.8 10031238
17:00+15ююз71889100 15.4 10011214
20:00+13юз41392100 17.6 10051070
25 октября, пн
пн2523:00+12юз3994100 22.1 1005619
02:00+12юз4991100 0.9 1006489
05:00+12юз4108799 1.8 1007882
08:00+9з2794100 2.8 1011565
11:00+13з366196 3.5 10121254
14:00+14зюз475950 0.1 10131391
17:00+13з356037 0.2 10151049
20:00+9ююз21825 0.0 101816